Adelanto, California, United States (92301)
Lat: 34.58N, Lon: 117.41W
Wx Zone: CAZ060
Local Info
Past Weather Observations for Saturday, November 22, 2014

NOTE: This archive is for the closest National Weather Service station to Adelanto. Information may differ from the station used for current weather conditions.

Click here for Long-term Archive

Time Weather Temperature Dewpoint Humidity Pressure Winds Precip Visibility
23:55
Clear
55°F / 13°C 45°F / 7°C 67% 30.04 in
(1017 mb)
W 16.1 mph
(W 26 kph)
- 10SM
23:35
Clear
55°F / 13°C 45°F / 7°C 67% 30.01 in
(1016 mb)
W 24.2 mph
(W 39 kph)
- 10SM
23:15
Clear
55°F / 13°C 45°F / 7°C 67% 30.01 in
(1016 mb)
W 23 mph
(W 37 kph)
- 10SM
22:55
Clear
55°F / 13°C 45°F / 7°C 67% 30.01 in
(1016 mb)
SSW 21.9 mph
(SSW 35 kph)
- 10SM
22:35
Clear
55°F / 13°C 46°F / 8°C 72% 30.04 in
(1017 mb)
SSW 21.9 mph
(SSW 35 kph)
- 10SM
22:15
Clear
55°F / 13°C 46°F / 8°C 72% 30.04 in
(1017 mb)
SSW 19.6 mph
(SSW 32 kph)
- 10SM
21:55
Clear
55°F / 13°C 46°F / 8°C 72% 30.04 in
(1017 mb)
SSW 18.4 mph
(SSW 30 kph)
- 10SM
21:35
Clear
55°F / 13°C 46°F / 8°C 72% 30.04 in
(1017 mb)
SSW 17.3 mph
(SSW 28 kph)
- 10SM
21:15
Clear
55°F / 13°C 46°F / 8°C 72% 30.04 in
(1017 mb)
SSW 17.3 mph
(SSW 28 kph)
- 10SM
20:55
Clear
55°F / 13°C 46°F / 8°C 72% 30.04 in
(1017 mb)
SSW 16.1 mph
(SSW 26 kph)
- 10SM
20:35
Clear
55°F / 13°C 46°F / 8°C 72% 30.04 in
(1017 mb)
SSW 15 mph
(SSW 24 kph)
- 10SM
20:15
Clear
55°F / 13°C 46°F / 8°C 72% 30.04 in
(1017 mb)
W 13.8 mph
(W 22 kph)
- 10SM
19:55
Clear
57°F / 14°C 46°F / 8°C 67% 30.06 in
(1018 mb)
W 6.9 mph
(W 11 kph)
- 10SM
19:35
Clear
57°F / 14°C 46°F / 8°C 67% 30.06 in
(1018 mb)
SSW 4.6 mph
(SSW 7 kph)
- 10SM
19:15
Clear
57°F / 14°C 46°F / 8°C 67% 30.04 in
(1017 mb)
SSW 4.6 mph
(SSW 7 kph)
- 10SM
18:55
Clear
59°F / 15°C 46°F / 8°C 63% 30.04 in
(1017 mb)
SSW 6.9 mph
(SSW 11 kph)
- 10SM
18:35
Clear
59°F / 15°C 46°F / 8°C 63% 30.04 in
(1017 mb)
W 12.7 mph
(W 20 kph)
- 10SM
18:15
Clear
59°F / 15°C 46°F / 8°C 63% 30.01 in
(1016 mb)
W 16.1 mph
(W 26 kph)
- 10SM
17:55
Clear
61°F / 16°C 45°F / 7°C 55% 30.01 in
(1016 mb)
W 26.5 mph
(W 43 kph)
- 10SM
17:35
Clear
61°F / 16°C 45°F / 7°C 55% 30.01 in
(1016 mb)
W 25.3 mph
(W 41 kph)
- 10SM
17:15
Clear
61°F / 16°C 45°F / 7°C 55% 30.01 in
(1016 mb)
W 27.6 mph
(W 44 kph)
- 10SM
16:55
Clear
61°F / 16°C 45°F / 7°C 55% 30.01 in
(1016 mb)
W 27.6 mph
(W 44 kph)
- 10SM
16:35
Clear
63°F / 17°C 43°F / 6°C 49% 30.01 in
(1016 mb)
W 26.5 mph
(W 43 kph)
- 7SM
16:15
Partly Cloudy
Hazy
63°F / 17°C 43°F / 6°C 49% 30.01 in
(1016 mb)
W 24.2 mph
(W 39 kph)
- 4SM
15:55
Partly Cloudy
Hazy
63°F / 17°C 43°F / 6°C 49% 30.01 in
(1016 mb)
W 26.5 mph
(W 43 kph)
- 2 1/2SM
15:35
Partly Cloudy
Hazy
64°F / 18°C 43°F / 6°C 46% 30.01 in
(1016 mb)
SSW 25.3 mph
(SSW 41 kph)
- 5SM
15:15
Partly Cloudy
Hazy
64°F / 18°C 41°F / 5°C 43% 30.01 in
(1016 mb)
SSW 25.3 mph
(SSW 41 kph)
- 3SM
14:55
Mostly Cloudy
Hazy
64°F / 18°C 39°F / 4°C 40% 30.01 in
(1016 mb)
SSW 27.6 mph
(SSW 44 kph)
- 1 3/4SM
14:35
Mostly Cloudy
Hazy
66°F / 19°C 39°F / 4°C 37% 30.01 in
(1016 mb)
W 27.6 mph
(W 44 kph)
- 1SM
14:15
Mostly Cloudy
Hazy
68°F / 20°C 39°F / 4°C 35% 30.01 in
(1016 mb)
W 29.9 mph
(W 48 kph)
- 1 3/4SM
13:55
Partly Cloudy
Hazy
70°F / 21°C 37°F / 3°C 31% 30.04 in
(1017 mb)
W 26.5 mph
(W 43 kph)
- 2 1/2SM
13:35
Partly Cloudy
Hazy
70°F / 21°C 37°F / 3°C 31% 30.04 in
(1017 mb)
SSW 25.3 mph
(SSW 41 kph)
- 3SM
13:15
Partly Cloudy
Hazy
70°F / 21°C 37°F / 3°C 31% 30.04 in
(1017 mb)
W 31.1 mph
(W 50 kph)
- 3SM
12:55
Partly Cloudy
Hazy
70°F / 21°C 36°F / 2°C 29% 30.04 in
(1017 mb)
W 24.2 mph
(W 39 kph)
- 4SM
12:35
Partly Cloudy
Hazy
70°F / 21°C 36°F / 2°C 29% 30.04 in
(1017 mb)
W 20.7 mph
(W 33 kph)
- 5SM
12:15
Partly Cloudy
Hazy
70°F / 21°C 36°F / 2°C 29% 30.04 in
(1017 mb)
SSW 20.7 mph
(SSW 33 kph)
- 3SM
11:55
Partly Cloudy
70°F / 21°C 34°F / 1°C 27% 30.04 in
(1017 mb)
W 23 mph
(W 37 kph)
- 10SM
11:35
Partly Cloudy
70°F / 21°C 34°F / 1°C 27% 30.04 in
(1017 mb)
W 19.6 mph
(W 32 kph)
- 10SM
11:15
Partly Cloudy
68°F / 20°C 30°F / -1°C 24% 30.06 in
(1018 mb)
SSW 19.6 mph
(SSW 32 kph)
- 10SM
10:35
Partly Cloudy
64°F / 18°C 28°F / -2°C 26% 30.09 in
(1019 mb)
SSW 15 mph
(SSW 24 kph)
- 10SM
10:15
Clear
61°F / 16°C 27°F / -3°C 27% 30.09 in
(1019 mb)
SW 6.9 mph
(SW 11 kph)
- 10SM
09:55
Clear
61°F / 16°C 25°F / -4°C 25% 30.12 in
(1020 mb)
SW 11.5 mph
(SW 19 kph)
- 10SM
09:35
Clear
59°F / 15°C 25°F / -4°C 27% 30.09 in
(1019 mb)
SSW 5.8 mph
(SSW 9 kph)
- 10SM
09:15
Clear
57°F / 14°C 27°F / -3°C 31% 30.12 in
(1020 mb)
SW 5.8 mph
(SW 9 kph)
- 10SM
08:55
Partly Cloudy
52°F / 11°C 30°F / -1°C 44% 30.12 in
(1020 mb)
S 5.8 mph
(S 9 kph)
- 10SM
08:35
Partly Cloudy
52°F / 11°C 30°F / -1°C 44% 30.09 in
(1019 mb)
S 9.2 mph
(S 15 kph)
- 10SM
08:15
Clear
48°F / 9°C 30°F / -1°C 50% 30.09 in
(1019 mb)
S 9.2 mph
(S 15 kph)
- 10SM
07:55
Clear
46°F / 8°C 30°F / -1°C 53% 30.09 in
(1019 mb)
SSE 10.4 mph
(SSE 17 kph)
- 10SM
07:35
Clear
45°F / 7°C 30°F / -1°C 57% 30.09 in
(1019 mb)
SSE 9.2 mph
(SSE 15 kph)
- 10SM
07:15
Fair
43°F / 6°C 30°F / -1°C 61% 30.09 in
(1019 mb)
SSE 9.2 mph
(SSE 15 kph)
- 10SM
06:55
Fair
43°F / 6°C 30°F / -1°C 61% 30.09 in
(1019 mb)
SSE 11.5 mph
(SSE 19 kph)
- 10SM
06:35
Fair
41°F / 5°C 30°F / -1°C 66% 30.09 in
(1019 mb)
SSE 12.7 mph
(SSE 20 kph)
- 10SM
05:55
Fair
39°F / 4°C 28°F / -2°C 65% 30.09 in
(1019 mb)
SSE 10.4 mph
(SSE 17 kph)
- 10SM
05:35
Fair
39°F / 4°C 28°F / -2°C 65% 30.09 in
(1019 mb)
SSE 6.9 mph
(SSE 11 kph)
- 10SM
05:15
Fair
37°F / 3°C 28°F / -2°C 70% 30.09 in
(1019 mb)
S 8.1 mph
(S 13 kph)
- 10SM
04:55
Fair
37°F / 3°C 30°F / -1°C 75% 30.09 in
(1019 mb)
S 5.8 mph
(S 9 kph)
- 10SM
04:35
Fair
37°F / 3°C 30°F / -1°C 75% 30.12 in
(1020 mb)
SW 5.8 mph
(SW 9 kph)
- 10SM
04:15
Fair
37°F / 3°C 30°F / -1°C 75% 30.09 in
(1019 mb)
S 6.9 mph
(S 11 kph)
- 10SM
03:55
Fair
37°F / 3°C 30°F / -1°C 75% 30.09 in
(1019 mb)
SW 4.6 mph
(SW 7 kph)
- 10SM
03:35
Fair
37°F / 3°C 30°F / -1°C 75% 30.09 in
(1019 mb)
S 6.9 mph
(S 11 kph)
- 10SM
03:15
Fair
37°F / 3°C 30°F / -1°C 75% 30.09 in
(1019 mb)
S 3.5 mph
(S 6 kph)
- 10SM
02:55
Clear
37°F / 3°C 30°F / -1°C 75% 30.12 in
(1020 mb)
S 8.1 mph
(S 13 kph)
- 10SM
02:35
Clear
37°F / 3°C 30°F / -1°C 75% 30.12 in
(1020 mb)
S 6.9 mph
(S 11 kph)
- 10SM
02:15
Clear
39°F / 4°C 30°F / -1°C 70% 30.12 in
(1020 mb)
S 6.9 mph
(S 11 kph)
- 10SM
01:55
Clear
39°F / 4°C 32°F / 0°C 75% 30.12 in
(1020 mb)
S 5.8 mph
(S 9 kph)
- 10SM
01:35
Fair
41°F / 5°C 32°F / 0°C 70% 30.12 in
(1020 mb)
S 5.8 mph
(S 9 kph)
- 10SM
01:15
Fair
39°F / 4°C 32°F / 0°C 75% 30.12 in
(1020 mb)
S 5.8 mph
(S 9 kph)
- 10SM
00:55
Fair
41°F / 5°C 34°F / 1°C 76% 30.12 in
(1020 mb)
SW 4.6 mph
(SW 7 kph)
- 10SM
00:35
Fair
43°F / 6°C 34°F / 1°C 71% 30.12 in
(1020 mb)
SW 3.5 mph
(SW 6 kph)
- 10SM
00:15
Fair
43°F / 6°C 34°F / 1°C 71% 30.12 in
(1020 mb)
SW 5.8 mph
(SW 9 kph)
- 10SM
Time Weather Temperature Dewpoint Humidity Pressure Winds Precip Visibility


Weather for websites

WeatherForYou.com, LLC is not responsible for any damages or problems caused by this service. Current weather conditions are obtained from the closest station including government and personal stations which may have varying degrees of accuracy. Weather forecasts are derived from the NOAA NDFD. Like all things, this site belongs to Jesus Christ... He just trusts me to maintain it. If you have any questions or comments email webmaster@weatherforyou.com

Copyright © 2014, WeatherForYou.com LLC. All rights reserved.